Location: La Trinit�
(48.1620°N, 3.4512°W)
Time: 18:26:37
(UTC+00:00)

Cosmos 990 Rocket - Pass Details

Date: 08 May 2021
Orbit: 747 x 769 km, 74.0° (Epoch: 21 June)

Event Time Altitude Azimuth Distance (km) Brightness Sun altitude
Exits shadow 23:20:07 55° 212° (SSW) 919 4.1 -23.5°
Maximum altitude 23:21:18 84° 293° (WNW) 776 3.9 -23.6°
Drops below altitude 10° 23:26:35 10° 22° (NNE) 2,318 7.2 -23.8°
Sets 23:28:59 0° 23° (NNE) 3,250 8.1 -23.8°
